Back to catalog

PEARL-1A

AliveCommunicationsSSO
NORAD 68990·PAYLOAD·🇮🇹 Italy

Launched May 3, 2026 from Vandenberg Space Force Base

Loading…

Next Passes (next 24 hours)

TLE

FreshSource: Space-Track

Epoch: Sep 13, 2026, 22:44 UTC

1 68990U 26100L   26256.94746411  .00001457  00000-0  15221-3 0  9999
2 68990  97.7182 152.4623 0004159 217.9761 142.1165 14.91178610 19922

Track PEARL-1A in real time with AllMySat

Download on the App Store